Home > Weather > Kohtla-Järve > Past weeks

Flag for Estonia Past Weather in Kohtla-Järve, Estonia — Yesterday and Last 2 Weeks

Now
71 °F

Passing clouds.


Feels Like: 72 °F
Forecast: 58 / 74 °F
Wind: 3 mph from South

Location: Johvi

Current Time: Jul 2, 2016 at 10:30:51 AM

Latest Report: Jul 2, 2016 at 9:00 AM


Visibility: 22 mi

Pressure: 30.06 "Hg

Humidity: 79%

Dew Point: 64 °F

Location of Kohtla-JärveLocation

Past Weather in Kohtla-Järve — Graph

°F

Kohtla-Järve Temperature Yesterday

Maximum temperature yesterday: 68 °F (at 10:00 AM)
Minimum temperature yesterday: 53 °F (at 4:00 AM)
Average temperature yesterday: 62 °F

High & Low Weather Summary for the Past Weeks

 TemperatureHumidityPressure
High81 °F (Jun 26, 11:00 AM)98% (Jun 27, 7:00 AM)30.29 "Hg (Jun 27, 7:00 AM)
Low51 °F (Jun 20, 3:00 AM)47% (Jun 23, 1:00 PM)29.41 "Hg (Jun 18, 6:00 AM)
Average64 °F80%29.98 "Hg
* Reported Jun 17 9:00 AM — Jul 2 9:00 AM, Kohtla-Järve, Weather by CustomWeather, © 2016

Note: Actual official high and low records may vary slightly from our data, if they occured in-between our weather recording intervals... More about our weather records

Advertising

Kohtla-Järve Weather History for the Previous 24 Hours

Scroll right to see more
 ConditionsComfort  
Time TempWeatherWind HumidityBarometerVisibility
9:00 AM
Sat, Jul 2
71 °FPassing clouds.3 mph79%30.06 "Hg22 mi
8:00 AM69 °FSunny.2 mph87%30.06 "Hg14 mi
7:00 AM66 °FSunny.2 mph96%30.05 "Hg8 mi
6:00 AM61 °FPassing clouds.1 mph97%30.05 "Hg3 mi
5:00 AM57 °FDuststorm.1 mph98%30.05 "Hg0 mi
4:00 AM57 °FDuststorm.1 mph98%30.05 "Hg0 mi
3:00 AM57 °FDuststorm.1 mph98%30.05 "Hg0 mi
2:00 AM58 °FDuststorm.No wind98%30.05 "Hg0 mi
1:00 AM58 °FClear.1 mph97%30.03 "Hg0 mi
12:00 AM59 °FPassing clouds.2 mph95%30.03 "Hg0 mi
11:00 PM
Fri, Jul 1
61 °FFog.1 mph95%30.03 "Hg2 mi
10:00 PM63 °FSunny.1 mph92%30.01 "Hg8 mi
9:00 PM65 °FSunny.1 mph88%30.01 "Hg17 mi
8:00 PM67 °FOvercast.2 mph81%30.00 "Hg25 mi
7:00 PM66 °FOvercast.2 mph82%30.01 "Hg28 mi
6:00 PM66 °FOvercast.2 mph84%30.01 "Hg22 mi
5:00 PM64 °FLow clouds.2 mph86%30.01 "Hg22 mi
4:00 PM64 °FLots of rain. Overcast.1 mph84%30.02 "Hg4 mi
3:00 PM64 °FRain showers. Overcast.No wind87%30.03 "Hg14 mi
2:00 PM64 °FRain showers. Overcast.3 mph83%30.03 "Hg7 mi
1:00 PM67 °FOvercast.5 mph65%30.02 "Hg22 mi
12:00 PM68 °FOvercast.3 mph76%30.02 "Hg17 mi
11:00 AM68 °FOvercast.2 mph75%30.01 "Hg16 mi
10:00 AM68 °FPartly sunny.2 mph76%30.01 "Hg22 mi
Weather by CustomWeather, © 2016

See weather overviewHow to use our weather pages